TimeCST,TemperatureF,Dew PointF,Humidity,Sea Level PressureIn,VisibilityMPH,Wind Direction,Wind SpeedMPH,Gust SpeedMPH,PrecipitationIn,Events,Conditions,WindDirDegrees,DateUTC
12:54 AM,-11.9,-17.0,78,30.32,10.0,SSW,10.4,-,N/A,,Clear,210,2014-01-24 06:54:00
1:54 AM,-11.0,-16.1,78,30.26,10.0,SSW,12.7,-,N/A,,Partly Cloudy,210,2014-01-24 07:54:00
2:54 AM,-8.0,-13.0,79,30.18,10.0,SSW,13.8,-,N/A,,Partly Cloudy,210,2014-01-24 08:54:00
3:54 AM,-4.0,-9.9,76,30.09,10.0,SSW,12.7,24.2,N/A,,Mostly Cloudy,210,2014-01-24 09:54:00
4:54 AM,-0.9,-9.0,69,30.01,10.0,SSW,15.0,-,N/A,,Overcast,200,2014-01-24 10:54:00
5:54 AM,3.9,-7.1,60,29.95,10.0,SW,15.0,-,N/A,,Overcast,220,2014-01-24 11:54:00
6:54 AM,8.1,-5.1,55,29.90,10.0,SW,16.1,-,N/A,,Overcast,220,2014-01-24 12:54:00
7:07 AM,8.1,-2.9,61,29.78,1.8,SW,15.0,-,0.00,Snow,Light Snow,230,2014-01-24 13:07:00
7:16 AM,8.1,-0.9,67,29.78,1.0,SW,13.8,-,0.00,Snow,Light Snow,230,2014-01-24 13:16:00
7:28 AM,8.1,1.9,76,29.75,0.8,SW,19.6,26.5,0.00,Snow,Light Snow,220,2014-01-24 13:28:00
7:48 AM,8.6,3.2,79,29.74,1.2,SW,13.8,25.3,0.00,Snow,Light Snow,230,2014-01-24 13:48:00
7:54 AM,9.0,3.0,77,29.86,1.2,SW,13.8,24.2,0.00,Snow,Light Snow,230,2014-01-24 13:54:00
8:05 AM,9.0,3.0,77,29.74,1.8,SW,16.1,-,0.00,Snow,Light Snow,230,2014-01-24 14:05:00
8:12 AM,9.0,3.0,77,29.74,2.5,SW,15.0,26.5,0.00,Snow,Light Snow,230,2014-01-24 14:12:00
8:23 AM,10.0,1.9,70,29.74,3.0,WSW,17.3,25.3,0.00,,Overcast,240,2014-01-24 14:23:00
8:54 AM,10.0,1.9,70,29.83,4.0,SW,17.3,25.3,0.00,,Haze,230,2014-01-24 14:54:00
9:54 AM,12.0,3.0,67,29.78,5.0,SW,17.3,-,0.01,,Haze,230,2014-01-24 15:54:00
10:54 AM,14.0,3.9,64,29.76,-9999.0,WSW,15.0,25.3,N/A,,Overcast,240,2014-01-24 16:54:00
11:54 AM,16.0,6.1,65,29.70,-9999.0,SW,13.8,21.9,N/A,,Overcast,230,2014-01-24 17:54:00
12:54 PM,18.0,7.0,62,29.64,-9999.0,WSW,17.3,23.0,N/A,,Overcast,240,2014-01-24 18:54:00
1:54 PM,19.0,9.0,65,29.58,-9999.0,SW,13.8,21.9,N/A,,Overcast,230,2014-01-24 19:54:00
2:54 PM,19.9,10.0,65,29.57,-9999.0,WSW,13.8,-,N/A,,Overcast,250,2014-01-24 20:54:00
3:54 PM,21.0,12.9,71,29.54,-9999.0,WSW,12.7,-,N/A,,Overcast,240,2014-01-24 21:54:00
4:54 PM,21.0,16.0,81,29.49,-9999.0,SW,10.4,-,0.00,Snow,Light Snow,230,2014-01-24 22:54:00
5:54 PM,21.9,18.0,85,29.46,-9999.0,SW,11.5,-,0.00,Snow,Light Snow,230,2014-01-24 23:54:00
6:54 PM,23.0,19.9,88,29.45,-9999.0,West,11.5,18.4,0.01,Snow,Light Snow,280,2014-01-25 00:54:00
7:02 PM,23.0,19.9,88,29.37,-9999.0,SW,10.4,-,0.00,Snow,Light Snow,230,2014-01-25 01:02:00
7:15 PM,24.1,21.0,88,29.37,-9999.0,West,11.5,-,0.00,Snow,Light Snow,260,2014-01-25 01:15:00
7:38 PM,25.0,21.0,85,29.36,-9999.0,WSW,11.5,-,0.00,Snow,Light Snow,250,2014-01-25 01:38:00
7:54 PM,25.0,21.9,88,29.42,-9999.0,West,10.4,-,0.00,Snow,Light Snow,260,2014-01-25 01:54:00
8:30 PM,27.0,23.0,85,29.34,-9999.0,West,11.5,-,0.00,,Overcast,280,2014-01-25 02:30:00
8:54 PM,28.0,23.0,81,29.40,-9999.0,WNW,15.0,-,0.00,,Overcast,290,2014-01-25 02:54:00
9:40 PM,28.0,21.9,78,29.34,-9999.0,WNW,16.1,24.2,0.00,Snow,Light Snow,300,2014-01-25 03:40:00
9:54 PM,28.0,23.0,81,29.40,-9999.0,WNW,18.4,-,0.00,,Overcast,300,2014-01-25 03:54:00
10:45 PM,27.0,21.0,78,29.33,-9999.0,WNW,17.3,-,0.00,,Mostly Cloudy,300,2014-01-25 04:45:00
10:54 PM,27.0,21.0,78,29.40,-9999.0,WNW,17.3,-,0.00,,Mostly Cloudy,300,2014-01-25 04:54:00
11:54 PM,27.0,19.0,72,29.39,-9999.0,WNW,17.3,29.9,N/A,,Mostly Cloudy,300,2014-01-25 05:54:00